ORBCOMM FM117 [+] (41188 NORAD) Tracking and Keplerian Element Data

This shows tracking and keplerian element data for the satellite.

Feedback or suggestion? Click here.




ElementValue
Catalog41188
NameORBCOMM FM117 [+]
Epoch Orbit30757
Epoch Day261.84255666
Epoch Year2021
RAAN61.9513
Inclination47.0017
Eccentricity0.0002824
Argument of Perigee193.2112
Mean Anonmoly166.8699
Mean Motion14.5491008
Decay Rate-6E-07
L11 41188U 15081K 21261.84255666 -.00000060 00000-0 24317-4 0 9999
L22 41188 47.0017 61.9513 0002824 193.2112 166.8699 14.54910080307572

Live tracking and technical data element details for ORBCOMM FM117 [+] (NORAD 41188). ORBCOMM FM117 [+] can be tracked NOW for your location showing map with azimuth and elevation plus other details from your city location.

Track the satellite on the map from your city or location and see movement details for azimuth, elevation, latitude, longitude, range, height, and movement on the map or in text.







IsCatalogInMostPopularTable: catalog: 41188, numindb: 559
Update: records affected: 1



GetName: 41188 ORBCOMM FM117 [+]

Hit Count: updated at: Sat, 25 Sep 2021 23:59:55 GMT